Terminal Aerodrome Forecast
Issued by NWS Rapid City, SD

Home | Current Version | Previous Version | Graphics & Text | Print | Product List | Glossary On
Versions: 1 2 3 4 5 6 7 8 9 10 11 12 13 14 15 16 17
000
FTUS43 KUNR 081745
TAFRAP
TAF
KRAP 081745Z 0818/0918 33030G40KT P6SM SCT250
     FM090100 32013KT P6SM SCT250 WS020/32050KT
     FM091200 30009KT P6SM FEW250 WS020/32040KT=

USA.gov is the U.S. government's official web portal to all federal, state and local government web resources and services.